Location: Corcelles
(46.1547°N, 4.7234°E)
Time: 08:44:28
(UTC+00:00)

Cosmos 1459 Rocket - Pass Details

Date: 14 July 2020
Orbit: 938 x 999 km, 83.0° (Epoch: 14 August)

Event Time Altitude Azimuth Distance (km) Brightness Sun altitude
Exits shadow 00:52:48 33° 165° (SSE) 1,550 4.6 -20.6°
Maximum altitude 00:55:37 66° 94° (E) 1,034 4.1 -20.5°
Drops below altitude 10° 01:01:44 10° 14° (NNE) 2,705 7.5 -20.1°
Sets 01:04:16 0° 11° (NNE) 3,665 8.6 -20.0°
